| time (UTC) | temp C | wind direction | speed KPH | gust KPH | rain 1hr cm | rain 24hr cm | rain mn cm | humidity % | barometer mb |
| 20260906190005 | 27 | 64 | 0.0 | 9.7 | 0.00 | 0.00 | 0.00 | 62 | 1012.2 |
| 20260906184504 | 27 | 62 | 0.0 | 6.4 | 0.00 | 0.00 | 0.00 | 67 | 1012.2 |
| 20260906183004 | 26 | 60 | 1.6 | 4.8 | 0.00 | 0.00 | 0.00 | 70 | 1012.4 |
| 20260906181505 | 27 | 68 | 0.0 | 6.4 | 0.00 | 0.00 | 0.00 | 70 | 1012.4 |
| 20260906180004 | 27 | 68 | 0.0 | 1.6 | 0.00 | 0.00 | 0.00 | 75 | 1012.4 |
| 20260906174504 | 27 | 69 | 0.0 | 3.2 | 0.00 | 0.00 | 0.00 | 74 | 1012.3 |
| 20260906173003 | 27 | 132 | 0.0 | 1.6 | 0.00 | 0.00 | 0.00 | 74 | 1012.4 |
| 20260906171505 | 27 | 95 | 0.0 | 1.6 | 0.00 | 0.00 | 0.00 | 77 | 1012.6 |
| 20260906170005 | 26 | 88 | 0.0 | 1.6 | 0.00 | 0.00 | 0.00 | 78 | 1012.6 |
| 20260906164504 | 26 | 0 | 0.0 | 0.0 | 0.00 | 0.00 | 0.00 | 80 | 1012.7 |
| 20260906163025 | 26 | 111 | 0.0 | 1.6 | 0.00 | 0.00 | 0.00 | 79 | 1012.9 |
| 20260906161504 | 26 | 112 | 0.0 | 1.6 | 0.00 | 0.00 | 0.00 | 80 | 1012.9 |
| 20260906160004 | 25 | 79 | 0.0 | 1.6 | 0.00 | 0.00 | 0.00 | 82 | 1013.0 |
| 20260906154505 | 25 | 76 | 0.0 | 1.6 | 0.00 | 0.00 | 0.00 | 83 | 1013.2 |
| 20260906153025 | 25 | 128 | 0.0 | 1.6 | 0.00 | 0.00 | 0.00 | 84 | 1013.1 |
| 20260906151504 | 24 | 0 | 0.0 | 0.0 | 0.00 | 0.00 | 0.00 | 85 | 1013.0 |
| 20260906150004 | 24 | 0 | 0.0 | 0.0 | 0.00 | 0.00 | 0.00 | 86 | 1012.8 |
| 20260906144504 | 24 | 88 | 0.0 | 1.6 | 0.00 | 0.00 | 0.00 | 86 | 1012.8 |
| 20260906143004 | 24 | 0 | 0.0 | 0.0 | 0.00 | 0.00 | 0.00 | 85 | 1012.7 |
| 20260906141503 | 24 | 0 | 0.0 | 0.0 | 0.00 | 0.00 | 0.00 | 86 | 1012.7 |
| 20260906140004 | 24 | 88 | 0.0 | 1.6 | 0.00 | 0.00 | 0.00 | 84 | 1012.7 |
| 20260906134503 | 24 | 79 | 0.0 | 1.6 | 0.00 | 0.00 | 0.00 | 84 | 1012.5 |
| 20260906133004 | 24 | 74 | 0.0 | 1.6 | 0.00 | 0.00 | 0.00 | 85 | 1012.2 |
| 20260906131525 | 25 | 65 | 0.0 | 3.2 | 0.00 | 0.00 | 0.00 | 86 | 1011.8 |
| 20260906130004 | 24 | 69 | 0.0 | 1.6 | 0.00 | 0.00 | 0.00 | 87 | 1011.6 |
| 20260906124504 | 24 | 65 | 0.0 | 1.6 | 0.00 | 0.00 | 0.00 | 88 | 1011.7 |
| 20260906123004 | 24 | 71 | 0.0 | 1.6 | 0.00 | 0.00 | 0.00 | 89 | 1011.5 |
| 20260906121504 | 23 | 68 | 0.0 | 1.6 | 0.00 | 0.00 | 0.00 | 89 | 1011.3 |
| 20260906120004 | 23 | 70 | 0.0 | 3.2 | 0.00 | 0.00 | 0.00 | 90 | 1011.0 |
| 20260906114525 | 23 | 74 | 0.0 | 1.6 | 0.00 | 0.00 | 0.00 | 93 | 1010.9 |
| 20260906113003 | 23 | 65 | 0.0 | 1.6 | 0.00 | 0.00 | 0.00 | 95 | 1010.9 |
| 20260906111504 | 23 | 71 | 0.0 | 1.6 | 0.00 | 0.00 | 0.00 | 96 | 1010.8 |
| 20260906110004 | 23 | 0 | 0.0 | 0.0 | 0.00 | 0.00 | 0.00 | 97 | 1010.7 |
| 20260906104503 | 22 | 0 | 0.0 | 0.0 | 0.00 | 0.00 | 0.00 | 97 | 1010.6 |
| 20260906103003 | 22 | 0 | 0.0 | 0.0 | 0.00 | 0.00 | 0.00 | 97 | 1010.4 |
| 20260906101504 | 22 | 0 | 0.0 | 0.0 | 0.00 | 0.00 | 0.00 | 97 | 1010.2 |
| 20260906100024 | 22 | 0 | 0.0 | 0.0 | 0.00 | 0.00 | 0.00 | 97 | 1010.1 |
| 20260906094504 | 22 | 0 | 0.0 | 0.0 | 0.00 | 0.00 | 0.00 | 97 | 1009.9 |
| 20260906093003 | 22 | 0 | 0.0 | 0.0 | 0.00 | 0.00 | 0.00 | 97 | 1009.9 |
| 20260906091504 | 22 | 0 | 0.0 | 0.0 | 0.00 | 0.00 | 0.00 | 97 | 1009.7 |
| 20260906090025 | 22 | 0 | 0.0 | 0.0 | 0.00 | 0.00 | 0.00 | 97 | 1009.7 |
| 20260906084503 | 22 | 0 | 0.0 | 0.0 | 0.00 | 0.00 | 0.00 | 96 | 1009.5 |
| 20260906083003 | 22 | 0 | 0.0 | 0.0 | 0.00 | 0.00 | 0.00 | 96 | 1009.5 |
| 20260906081503 | 22 | 0 | 0.0 | 0.0 | 0.00 | 0.00 | 0.00 | 96 | 1009.3 |
| 20260906080004 | 22 | 0 | 0.0 | 0.0 | 0.00 | 0.00 | 0.00 | 95 | 1009.2 |
| 20260906074505 | 22 | 0 | 0.0 | 0.0 | 0.00 | 0.00 | 0.00 | 95 | 1009.2 |
| 20260906073005 | 22 | 0 | 0.0 | 0.0 | 0.00 | 0.00 | 0.00 | 95 | 1009.1 |
| 20260906071506 | 22 | 0 | 0.0 | 0.0 | 0.00 | 0.00 | 0.00 | 95 | 1009.2 |
| 20260906070005 | 22 | 0 | 0.0 | 0.0 | 0.00 | 0.00 | 0.00 | 95 | 1009.2 |
| 20260906064506 | 22 | 0 | 0.0 | 0.0 | 0.00 | 0.00 | 0.00 | 94 | 1009.2 |
| 20260906063026 | 22 | 0 | 0.0 | 0.0 | 0.00 | 0.00 | 0.00 | 94 | 1009.2 |
| 20260906061505 | 22 | 0 | 0.0 | 0.0 | 0.00 | 0.00 | 0.00 | 94 | 1009.4 |
| 20260906060005 | 22 | 0 | 0.0 | 0.0 | 0.00 | 0.00 | 0.00 | 93 | 1009.6 |
| 20260906054505 | 23 | 0 | 0.0 | 0.0 | 0.00 | 0.00 | 0.00 | 94 | 1009.8 |
| 20260906053005 | 23 | 0 | 0.0 | 0.0 | 0.00 | 0.00 | 0.00 | 94 | 1009.6 |
| 20260906051506 | 22 | 0 | 0.0 | 0.0 | 0.00 | 0.00 | 0.00 | 94 | 1009.5 |
| 20260906050005 | 23 | 0 | 0.0 | 0.0 | 0.00 | 0.00 | 0.00 | 95 | 1009.8 |
| 20260906044505 | 23 | 0 | 0.0 | 0.0 | 0.00 | 0.00 | 0.00 | 95 | 1009.8 |
| 20260906043005 | 23 | 0 | 0.0 | 0.0 | 0.00 | 0.00 | 0.00 | 95 | 1010.0 |
| 20260906041505 | 23 | 0 | 0.0 | 0.0 | 0.00 | 0.00 | 0.00 | 94 | 1010.1 |
| 20260906040007 | 23 | 0 | 0.0 | 0.0 | 0.00 | 0.00 | 0.00 | 94 | 1010.1 |
| 20260906034505 | 23 | 0 | 0.0 | 0.0 | 0.00 | 0.00 | 0.00 | 94 | 1010.1 |
| 20260906033005 | 23 | 0 | 0.0 | 0.0 | 0.00 | 0.00 | 0.00 | 93 | 1010.3 |
| 20260906031526 | 23 | 0 | 0.0 | 0.0 | 0.00 | 0.00 | 0.00 | 93 | 1010.4 |
| 20260906030005 | 24 | 0 | 0.0 | 0.0 | 0.00 | 0.00 | 0.00 | 92 | 1010.3 |
| 20260906024505 | 24 | 0 | 0.0 | 0.0 | 0.00 | 0.00 | 0.00 | 91 | 1010.4 |
| 20260906023005 | 24 | 0 | 0.0 | 0.0 | 0.00 | 0.00 | 0.00 | 90 | 1010.5 |
| 20260906021505 | 25 | 0 | 0.0 | 0.0 | 0.00 | 0.00 | 0.00 | 89 | 1010.4 |
| 20260906020025 | 25 | 0 | 0.0 | 0.0 | 0.00 | 0.03 | 0.00 | 88 | 1010.6 |
| 20260906014505 | 25 | 221 | 0.0 | 1.6 | 0.00 | 0.08 | 0.00 | 88 | 1010.8 |
| 20260906013005 | 25 | 0 | 0.0 | 0.0 | 0.00 | 0.18 | 0.00 | 88 | 1010.3 |
| 20260906011505 | 25 | 0 | 0.0 | 0.0 | 0.00 | 0.23 | 0.00 | 87 | 1010.2 |
| 20260906010005 | 26 | 0 | 0.0 | 0.0 | 0.00 | 0.25 | 0.00 | 86 | 1010.0 |
| 20260906004505 | 26 | 154 | 0.0 | 3.2 | 0.00 | 0.28 | 0.00 | 85 | 1010.0 |
| 20260906003025 | 26 | 296 | 0.0 | 1.6 | 0.00 | 0.33 | 0.00 | 85 | 1009.8 |
| 20260906001504 | 26 | 62 | 0.0 | 1.6 | 0.00 | 0.36 | 0.00 | 84 | 1009.2 |
| 20260906000025 | 26 | 56 | 0.0 | 1.6 | 0.00 | 0.43 | 0.00 | 84 | 1008.9 |
| 20260905234526 | 26 | 65 | 0.0 | 1.6 | 0.00 | 0.53 | 0.00 | 83 | 1008.5 |
| 20260905233005 | 27 | 69 | 0.0 | 3.2 | 0.00 | 0.56 | 0.00 | 83 | 1008.6 |
| 20260905231504 | 27 | 61 | 0.0 | 4.8 | 0.00 | 0.56 | 0.00 | 83 | 1008.8 |
| 20260905230005 | 27 | 82 | 0.0 | 1.6 | 0.00 | 0.56 | 0.00 | 81 | 1009.1 |
| 20260905224504 | 27 | 82 | 0.0 | 1.6 | 0.00 | 0.56 | 0.00 | 80 | 1009.2 |
| 20260905223004 | 27 | 76 | 0.0 | 1.6 | 0.00 | 0.56 | 0.00 | 80 | 1008.9 |
| 20260905221504 | 28 | 72 | 0.0 | 1.6 | 0.00 | 0.56 | 0.00 | 78 | 1008.4 |
| 20260905220004 | 28 | 65 | 0.0 | 4.8 | 0.00 | 0.56 | 0.00 | 78 | 1008.1 |
| 20260905214504 | 28 | 63 | 0.0 | 4.8 | 0.00 | 0.56 | 0.00 | 78 | 1008.3 |
| 20260905213026 | 28 | 62 | 0.0 | 4.8 | 0.00 | 0.56 | 0.00 | 77 | 1008.3 |
| 20260905211504 | 29 | 49 | 0.0 | 3.2 | 0.00 | 0.56 | 0.00 | 78 | 1008.2 |
| 20260905210005 | 30 | 52 | 0.0 | 1.6 | 0.00 | 0.56 | 0.00 | 78 | 1007.8 |
| 20260905204505 | 31 | 318 | 0.0 | 4.8 | 0.00 | 0.56 | 0.00 | 75 | 1007.9 |
| 20260905203004 | 31 | 326 | 0.0 | 1.6 | 0.00 | 0.56 | 0.00 | 73 | 1007.9 |
| 20260905201505 | 32 | 84 | 0.0 | 1.6 | 0.00 | 0.58 | 0.00 | 70 | 1008.1 |
| 20260905200004 | 32 | 84 | 0.0 | 1.6 | 0.00 | 0.58 | 0.00 | 66 | 1008.1 |
| 20260905194504 | 31 | 71 | 0.0 | 3.2 | 0.00 | 0.58 | 0.00 | 68 | 1008.4 |
| 20260905193026 | 31 | 65 | 0.0 | 3.2 | 0.00 | 0.58 | 0.00 | 69 | 1008.7 |
| 20260905191504 | 31 | 62 | 0.0 | 1.6 | 0.00 | 0.58 | 0.00 | 72 | 1008.8 |